Location: Starhoo Observatory
(41.8578°N, 70.9669°W)
Time: 07:31:33
(UTC-05:00)

ISS - Visible Passes

Search period start: 24 February 2017 00:00
Search period end: 06 March 2017 00:00
Orbit: 399 x 408 km, 51.6° (Epoch: 24 February)

Date Brightness Start Highest point End Pass type
(mag) Time Alt. Az. Time Alt. Az. Time Alt. Az.
28 Feb -0.3 05:23:48 10° SSE 05:25:34 14° SE 05:27:19 10° E visible
02 Mar -1.6 05:13:37 10° SSW 05:16:34 31° SE 05:19:33 10° ENE visible
03 Mar -0.8 04:22:49 14° SSE 04:24:09 17° SE 04:26:21 10° E visible
04 Mar -3.2 05:05:28 19° SW 05:07:40 76° SE 05:10:59 10° ENE visible
05 Mar -2.1 04:15:17 38° SE 04:15:17 38° SE 04:18:12 10° ENE visible
